RYR14SP GCTS-LFBO

Flight info

Callsign RYR14SP
Flight time 3h 1m
Altitude 36000
Route KORAL UG5 SONSO DCT NIRAL UN871 OSDAM UM985 BARPA M985 PIMOS M445 ASDIR Y90 USKAR N863 GIROM A29 ASPET
Aircraft B738/M-SADE3FGHIJ1J7LP2RWXY/SB1D1G1

Departure

Time 2026-04-29 14:21
Airport Tenerife Sur Airport (GCTS)

Arrival

Time 2026-04-29 17:22
Airport Toulouse-Blagnac Airport (LFBO)
Time Latitude Longitude Altitude Speed Heading
2026-04-29 13:58 28.04494 -16.57844 222 ft 0 kts 339°
2026-04-29 14:15 28.04505 -16.57849 222 ft 6 kts 339°
2026-04-29 14:15 28.04546 -16.57898 224 ft 11 kts 264°
2026-04-29 14:15 28.04485 -16.57921 222 ft 11 kts 160°
2026-04-29 14:15 28.04413 -16.57900 222 ft 11 kts 201°
2026-04-29 14:16 28.04378 -16.57973 222 ft 11 kts 248°
2026-04-29 14:16 28.04351 -16.58052 222 ft 11 kts 249°
2026-04-29 14:16 28.04311 -16.58167 222 ft 21 kts 248°
2026-04-29 14:16 28.04254 -16.58332 222 ft 23 kts 248°
2026-04-29 14:17 28.04196 -16.58497 222 ft 22 kts 249°
2026-04-29 14:17 28.04148 -16.58662 218 ft 23 kts 248°
2026-04-29 14:17 28.04084 -16.58843 210 ft 25 kts 249°
2026-04-29 14:17 28.04007 -16.58998 213 ft 18 kts 193°
2026-04-29 14:18 28.03913 -16.58895 201 ft 23 kts 116°
2026-04-29 14:18 28.03930 -16.58733 195 ft 20 kts 68°
2026-04-29 14:18 28.03952 -16.58668 205 ft 0 kts 69°
2026-04-29 14:20 28.04015 -16.58484 197 ft 74 kts 68°
2026-04-29 14:20 28.04334 -16.57580 201 ft 168 kts 69°
2026-04-29 14:21 28.04793 -16.56271 1178 ft 184 kts 70°
2026-04-29 14:21 28.05281 -16.54865 2353 ft 203 kts 70°
2026-04-29 14:21 28.05833 -16.53262 2875 ft 232 kts 69°
2026-04-29 14:21 28.06447 -16.51497 3508 ft 244 kts 69°
2026-04-29 14:22 28.07073 -16.49697 4299 ft 248 kts 68°
2026-04-29 14:22 28.07702 -16.47889 5081 ft 252 kts 68°
2026-04-29 14:22 28.08350 -16.46026 5841 ft 256 kts 68°
2026-04-29 14:22 28.08785 -16.44064 6531 ft 262 kts 83°
2026-04-29 14:23 28.08942 -16.41989 7192 ft 267 kts 86°
2026-04-29 14:23 28.09079 -16.39876 7915 ft 271 kts 86°
2026-04-29 14:23 28.09218 -16.37727 8636 ft 276 kts 86°
2026-04-29 14:23 28.09365 -16.35526 9265 ft 288 kts 86°
2026-04-29 14:24 28.09525 -16.33180 9822 ft 307 kts 86°
2026-04-29 14:24 28.09697 -16.30721 10512 ft 323 kts 86°
2026-04-29 14:24 28.09884 -16.28073 10748 ft 353 kts 86°
2026-04-29 14:24 28.10088 -16.25225 11263 ft 369 kts 86°
2026-04-29 14:25 28.10298 -16.22306 12095 ft 374 kts 86°
2026-04-29 14:25 28.10512 -16.19352 12985 ft 378 kts 86°
2026-04-29 14:25 28.10728 -16.16360 13838 ft 384 kts 86°
2026-04-29 14:25 28.10946 -16.13320 14580 ft 389 kts 86°
2026-04-29 14:26 28.11166 -16.10246 15344 ft 394 kts 86°
2026-04-29 14:26 28.11388 -16.07129 16113 ft 399 kts 86°
2026-04-29 14:26 28.11609 -16.04016 16861 ft 404 kts 86°
2026-04-29 14:26 28.11760 -16.00826 17598 ft 408 kts 92°
2026-04-29 14:27 28.11640 -15.97597 18326 ft 412 kts 96°
2026-04-29 14:27 28.11389 -15.94346 18965 ft 417 kts 97°
2026-04-29 14:27 28.11104 -15.91058 19621 ft 421 kts 97°
2026-04-29 14:28 28.10562 -15.84376 20915 ft 429 kts 97°
2026-04-29 14:28 28.10316 -15.80988 21523 ft 434 kts 96°
2026-04-29 14:28 28.10078 -15.77557 22128 ft 439 kts 96°
2026-04-29 14:28 28.09848 -15.74143 22721 ft 443 kts 96°
2026-04-29 14:29 28.09613 -15.70646 23305 ft 447 kts 96°
2026-04-29 14:29 28.09375 -15.67116 23838 ft 451 kts 96°
2026-04-29 14:29 28.09133 -15.63555 24323 ft 455 kts 96°
2026-04-29 14:29 28.08888 -15.59968 24791 ft 459 kts 97°
2026-04-29 14:30 28.08640 -15.56349 25281 ft 462 kts 97°
2026-04-29 14:30 28.08389 -15.52710 25771 ft 464 kts 97°
2026-04-29 14:30 28.08136 -15.49049 26216 ft 468 kts 97°
2026-04-29 14:30 28.07996 -15.45346 26623 ft 475 kts 88°
2026-04-29 14:31 28.08661 -15.41707 27027 ft 482 kts 71°
2026-04-29 14:31 28.10219 -15.38334 27477 ft 485 kts 57°
2026-04-29 14:31 28.12112 -15.35150 27891 ft 489 kts 55°
2026-04-29 14:31 28.14067 -15.31977 28244 ft 493 kts 54°
2026-04-29 14:32 28.16051 -15.28781 28602 ft 497 kts 55°
2026-04-29 14:32 28.17367 -15.26648 28860 ft 499 kts 55°
2026-04-29 14:32 28.19356 -15.23399 29240 ft 502 kts 55°
2026-04-29 14:32 28.21342 -15.20117 29600 ft 505 kts 56°
2026-04-29 14:33 28.23330 -15.16804 30001 ft 507 kts 56°
2026-04-29 14:33 28.25305 -15.13495 30449 ft 506 kts 56°
2026-04-29 14:33 28.27248 -15.10228 30929 ft 504 kts 56°
2026-04-29 14:33 28.29207 -15.06931 31376 ft 503 kts 56°
2026-04-29 14:34 28.31165 -15.03633 31776 ft 504 kts 56°
2026-04-29 14:34 28.33125 -15.00330 32171 ft 504 kts 56°
2026-04-29 14:34 28.35081 -14.97034 32601 ft 503 kts 56°
2026-04-29 14:34 28.37039 -14.93734 33032 ft 502 kts 56°
2026-04-29 14:35 28.38989 -14.90444 33457 ft 502 kts 56°
2026-04-29 14:35 28.40941 -14.87150 33859 ft 501 kts 56°
2026-04-29 14:35 28.42885 -14.83866 34231 ft 501 kts 56°
2026-04-29 14:35 28.44830 -14.80578 34593 ft 500 kts 56°
2026-04-29 14:36 28.46752 -14.77326 34943 ft 499 kts 56°
2026-04-29 14:36 28.48685 -14.74052 35318 ft 498 kts 56°
2026-04-29 14:36 28.50616 -14.70781 35726 ft 496 kts 56°
2026-04-29 14:36 28.52535 -14.67526 36006 ft 497 kts 56°
2026-04-29 14:37 28.54476 -14.64231 35990 ft 504 kts 56°
2026-04-29 14:37 28.58396 -14.57571 36012 ft 514 kts 56°
2026-04-29 14:38 28.62384 -14.50784 35992 ft 514 kts 56°
2026-04-29 14:38 28.66358 -14.44010 35995 ft 513 kts 56°
2026-04-29 14:39 28.70297 -14.37285 35994 ft 513 kts 56°
2026-04-29 14:39 28.74249 -14.30526 35991 ft 512 kts 56°
2026-04-29 14:40 28.78194 -14.23769 35994 ft 511 kts 56°
2026-04-29 14:40 28.82131 -14.17015 35994 ft 511 kts 57°
2026-04-29 14:41 28.86059 -14.10266 35994 ft 510 kts 57°
2026-04-29 14:41 28.89957 -14.03556 35991 ft 510 kts 57°
2026-04-29 14:42 28.93876 -13.96800 35994 ft 509 kts 57°
2026-04-29 14:42 28.97790 -13.90042 35993 ft 509 kts 57°
2026-04-29 14:43 29.01687 -13.83302 35991 ft 508 kts 57°
2026-04-29 14:43 29.05565 -13.76585 35992 ft 508 kts 57°
2026-04-29 14:44 29.09453 -13.69840 35994 ft 508 kts 57°
2026-04-29 14:44 29.13338 -13.63087 35995 ft 507 kts 57°
2026-04-29 14:45 29.17215 -13.56338 35992 ft 507 kts 57°
2026-04-29 14:45 29.21060 -13.49634 35993 ft 507 kts 57°
2026-04-29 14:46 29.24926 -13.42883 35989 ft 506 kts 57°
2026-04-29 14:46 29.28790 -13.36123 35992 ft 506 kts 57°
2026-04-29 14:47 29.32645 -13.29369 35991 ft 506 kts 57°
2026-04-29 14:47 29.36471 -13.22654 35991 ft 505 kts 57°
2026-04-29 14:48 29.40307 -13.15911 35991 ft 505 kts 57°
2026-04-29 14:48 29.44146 -13.09151 35991 ft 505 kts 57°
2026-04-29 14:49 29.47981 -13.02387 35993 ft 505 kts 57°
2026-04-29 14:49 29.51783 -12.95670 35991 ft 505 kts 57°
2026-04-29 14:50 29.55605 -12.88908 35993 ft 505 kts 57°
2026-04-29 14:50 29.59421 -12.82145 35992 ft 505 kts 57°
2026-04-29 14:51 29.63244 -12.75356 35987 ft 505 kts 57°
2026-04-29 14:51 29.67039 -12.68606 35989 ft 505 kts 57°
2026-04-29 14:52 29.70845 -12.61825 35989 ft 505 kts 57°
2026-04-29 14:52 29.74679 -12.55043 35985 ft 505 kts 56°
2026-04-29 14:53 29.78650 -12.48361 35988 ft 505 kts 55°
2026-04-29 14:53 29.82617 -12.41733 35985 ft 505 kts 55°
2026-04-29 14:54 29.86565 -12.35074 35985 ft 505 kts 56°
2026-04-29 14:54 29.90524 -12.28360 35981 ft 505 kts 56°
2026-04-29 14:55 29.94469 -12.21658 35979 ft 505 kts 56°
2026-04-29 14:55 29.98411 -12.14953 35980 ft 505 kts 55°
2026-04-29 14:56 30.02562 -12.08494 35971 ft 504 kts 45°
2026-04-29 14:56 30.07577 -12.02849 35979 ft 503 kts 41°
2026-04-29 14:57 30.12670 -11.97301 35985 ft 503 kts 41°
2026-04-29 14:57 30.17730 -11.91715 35979 ft 503 kts 42°
2026-04-29 14:58 30.22767 -11.86078 35983 ft 503 kts 42°
2026-04-29 14:58 30.27752 -11.80469 35983 ft 503 kts 42°
2026-04-29 14:59 30.32774 -11.74810 35982 ft 503 kts 42°
2026-04-29 14:59 30.37790 -11.69153 35980 ft 503 kts 42°
2026-04-29 15:00 30.42801 -11.63495 35979 ft 502 kts 42°
2026-04-29 15:00 30.47807 -11.57835 35978 ft 502 kts 42°
2026-04-29 15:01 30.52771 -11.52214 35977 ft 501 kts 42°
2026-04-29 15:01 30.57762 -11.46555 35975 ft 501 kts 42°
2026-04-29 15:02 30.62746 -11.40893 35980 ft 500 kts 42°
2026-04-29 15:02 30.67711 -11.35245 35982 ft 499 kts 42°
2026-04-29 15:03 30.72676 -11.29587 35979 ft 499 kts 42°
2026-04-29 15:03 30.77624 -11.23941 35979 ft 498 kts 42°
2026-04-29 15:04 30.82543 -11.18320 35977 ft 498 kts 42°
2026-04-29 15:04 30.87482 -11.12668 35977 ft 497 kts 42°
2026-04-29 15:05 30.92413 -11.07016 35979 ft 497 kts 42°
2026-04-29 15:05 30.97341 -11.01358 35976 ft 496 kts 42°
2026-04-29 15:06 31.02261 -10.95701 35973 ft 496 kts 42°
2026-04-29 15:06 31.07138 -10.90085 35972 ft 496 kts 42°
2026-04-29 15:07 31.12047 -10.84423 35975 ft 495 kts 42°
2026-04-29 15:07 31.16942 -10.78769 35971 ft 495 kts 42°
2026-04-29 15:08 31.21841 -10.73101 35970 ft 495 kts 42°
2026-04-29 15:08 31.26728 -10.67439 35971 ft 494 kts 42°
2026-04-29 15:09 31.31576 -10.61814 35971 ft 494 kts 42°
2026-04-29 15:09 31.36458 -10.56139 35969 ft 494 kts 42°
2026-04-29 15:10 31.41346 -10.50449 35969 ft 494 kts 42°
2026-04-29 15:10 31.46185 -10.44809 35967 ft 494 kts 42°
2026-04-29 15:11 31.51051 -10.39127 35966 ft 493 kts 42°
2026-04-29 15:11 31.55918 -10.33435 35968 ft 493 kts 43°
2026-04-29 15:12 31.60740 -10.27787 35970 ft 492 kts 43°
2026-04-29 15:12 31.65578 -10.22111 35964 ft 492 kts 43°
2026-04-29 15:13 31.70415 -10.16429 35965 ft 491 kts 43°
2026-04-29 15:13 31.75249 -10.10740 35965 ft 491 kts 43°
2026-04-29 15:14 31.80071 -10.05056 35965 ft 491 kts 43°
2026-04-29 15:14 31.84861 -9.99402 35970 ft 490 kts 43°
2026-04-29 15:15 31.89676 -9.93710 35967 ft 490 kts 43°
2026-04-29 15:15 31.94479 -9.88021 35965 ft 489 kts 43°
2026-04-29 15:16 31.99280 -9.82328 35967 ft 489 kts 43°
2026-04-29 15:16 32.04069 -9.76638 35967 ft 489 kts 43°
2026-04-29 15:17 32.08830 -9.70975 35965 ft 488 kts 43°
2026-04-29 15:17 32.13611 -9.65276 35964 ft 488 kts 44°
2026-04-29 15:18 32.18385 -9.59578 35962 ft 488 kts 44°
2026-04-29 15:18 32.23160 -9.53871 35962 ft 488 kts 44°
2026-04-29 15:19 32.27901 -9.48194 35962 ft 488 kts 44°
2026-04-29 15:19 32.32668 -9.42478 35960 ft 487 kts 44°
2026-04-29 15:20 32.36632 -9.37717 35960 ft 487 kts 44°
2026-04-29 15:20 32.41390 -9.31993 35959 ft 487 kts 44°
2026-04-29 15:21 32.46154 -9.26254 35961 ft 487 kts 44°
2026-04-29 15:21 32.50878 -9.20555 35963 ft 488 kts 44°
2026-04-29 15:22 32.55635 -9.14806 35961 ft 488 kts 44°
2026-04-29 15:22 32.60386 -9.09055 35959 ft 488 kts 44°
2026-04-29 15:23 32.65142 -9.03288 35957 ft 489 kts 44°
2026-04-29 15:23 32.69899 -8.97510 35958 ft 489 kts 44°
2026-04-29 15:24 32.74645 -8.91737 35962 ft 489 kts 44°
2026-04-29 15:24 32.79364 -8.85988 35957 ft 489 kts 44°
2026-04-29 15:25 32.84114 -8.80192 35963 ft 489 kts 44°
2026-04-29 15:25 32.88819 -8.74440 35958 ft 489 kts 44°
2026-04-29 15:26 32.93564 -8.68630 35959 ft 489 kts 44°
2026-04-29 15:26 32.98310 -8.62811 35955 ft 490 kts 44°
2026-04-29 15:27 33.03025 -8.57018 35957 ft 490 kts 44°
2026-04-29 15:27 33.07774 -8.51175 35958 ft 490 kts 44°
2026-04-29 15:28 33.12519 -8.45325 35957 ft 491 kts 44°
2026-04-29 15:28 33.17265 -8.39466 35959 ft 491 kts 45°
2026-04-29 15:29 33.22478 -8.34249 35960 ft 487 kts 31°
2026-04-29 15:30 33.33991 -8.25750 35962 ft 488 kts 29°
2026-04-29 15:30 33.39757 -8.21449 35953 ft 488 kts 30°
2026-04-29 15:31 33.45504 -8.17110 35956 ft 488 kts 30°
2026-04-29 15:31 33.51252 -8.12752 35958 ft 489 kts 30°
2026-04-29 15:32 33.57003 -8.08386 35952 ft 489 kts 30°
2026-04-29 15:32 33.62761 -8.04011 35956 ft 489 kts 30°
2026-04-29 15:33 33.68484 -7.99657 35951 ft 489 kts 30°
2026-04-29 15:33 33.74243 -7.95268 35952 ft 490 kts 30°
2026-04-29 15:34 33.79996 -7.90877 35952 ft 490 kts 30°
2026-04-29 15:34 33.85759 -7.86471 35950 ft 490 kts 30°
2026-04-29 15:35 33.91485 -7.82086 35955 ft 491 kts 30°
2026-04-29 15:35 33.97239 -7.77672 35958 ft 491 kts 30°
2026-04-29 15:36 34.03007 -7.73241 35951 ft 491 kts 30°
2026-04-29 15:36 34.08768 -7.68808 35947 ft 491 kts 30°
2026-04-29 15:37 34.14541 -7.64357 35954 ft 492 kts 30°
2026-04-29 15:37 34.20310 -7.59904 35950 ft 492 kts 30°
2026-04-29 15:38 34.26042 -7.55470 35947 ft 492 kts 30°
2026-04-29 15:38 34.31823 -7.50992 35952 ft 493 kts 30°
2026-04-29 15:39 34.37607 -7.46504 35945 ft 493 kts 30°
2026-04-29 15:39 34.43388 -7.42011 35947 ft 493 kts 30°
2026-04-29 15:40 34.49133 -7.37539 35944 ft 494 kts 30°
2026-04-29 15:40 34.54912 -7.33032 35949 ft 494 kts 30°
2026-04-29 15:41 34.60698 -7.28513 35949 ft 494 kts 30°
2026-04-29 15:41 34.66486 -7.23984 35951 ft 494 kts 30°
2026-04-29 15:42 34.72231 -7.19481 35947 ft 495 kts 30°
2026-04-29 15:42 34.78026 -7.14932 35953 ft 495 kts 30°
2026-04-29 15:43 34.83817 -7.10377 35946 ft 495 kts 30°
2026-04-29 15:43 34.89604 -7.05818 35947 ft 495 kts 29°
2026-04-29 15:44 34.95394 -7.01249 35949 ft 495 kts 29°
2026-04-29 15:44 35.01146 -6.96703 35941 ft 496 kts 29°
2026-04-29 15:45 35.06934 -6.92119 35945 ft 496 kts 29°
2026-04-29 15:45 35.12723 -6.87528 35944 ft 496 kts 29°
2026-04-29 15:46 35.18514 -6.82926 35944 ft 496 kts 29°
2026-04-29 15:46 35.24309 -6.78313 35941 ft 496 kts 29°
2026-04-29 15:47 35.30063 -6.73725 35948 ft 497 kts 30°
2026-04-29 15:47 35.35293 -6.68111 35947 ft 504 kts 47°
2026-04-29 15:48 35.39141 -6.60914 35947 ft 507 kts 60°
2026-04-29 15:48 35.42574 -6.53347 35934 ft 507 kts 59°
2026-04-29 15:49 35.46131 -6.45931 35943 ft 507 kts 57°
2026-04-29 15:49 35.49877 -6.38586 35947 ft 507 kts 56°
2026-04-29 15:50 35.53641 -6.31240 35940 ft 508 kts 57°
2026-04-29 15:50 35.57374 -6.23866 35945 ft 508 kts 57°
2026-04-29 15:51 35.61071 -6.16516 35938 ft 508 kts 57°
2026-04-29 15:51 35.64769 -6.09148 35928 ft 502 kts 57°
2026-04-29 15:52 35.68423 -6.01856 35947 ft 501 kts 57°
2026-04-29 15:52 35.72087 -5.94533 35936 ft 502 kts 57°
2026-04-29 15:53 35.75475 -5.86998 35944 ft 503 kts 63°
2026-04-29 15:53 35.78452 -5.79190 35944 ft 504 kts 64°
2026-04-29 15:54 35.81462 -5.71376 35942 ft 505 kts 63°
2026-04-29 15:54 35.84521 -5.63624 35943 ft 506 kts 63°
2026-04-29 15:55 35.87516 -5.56247 35959 ft 506 kts 62°
2026-04-29 15:55 35.90674 -5.48484 35965 ft 506 kts 62°
2026-04-29 15:56 35.93816 -5.40703 35962 ft 506 kts 63°
2026-04-29 15:56 35.96931 -5.32953 35973 ft 506 kts 63°
2026-04-29 15:57 36.00065 -5.25140 35959 ft 507 kts 63°
2026-04-29 15:57 36.03269 -5.17360 35956 ft 506 kts 61°
2026-04-29 15:58 36.06504 -5.09692 35931 ft 506 kts 61°
2026-04-29 15:58 36.09739 -5.01966 35942 ft 506 kts 62°
2026-04-29 15:59 36.12960 -4.94220 35931 ft 506 kts 62°
2026-04-29 15:59 36.16698 -4.86903 35922 ft 502 kts 46°
2026-04-29 16:00 36.21512 -4.80680 35930 ft 500 kts 42°
2026-04-29 16:00 36.26371 -4.74586 35927 ft 500 kts 43°
2026-04-29 16:01 36.31220 -4.68403 35934 ft 500 kts 43°
2026-04-29 16:01 36.36044 -4.62174 35927 ft 501 kts 43°
2026-04-29 16:02 36.40867 -4.55911 35930 ft 502 kts 43°
2026-04-29 16:02 36.45698 -4.49627 35926 ft 503 kts 43°
2026-04-29 16:03 36.50538 -4.43325 35918 ft 503 kts 43°
2026-04-29 16:03 36.55339 -4.37062 35914 ft 503 kts 43°
2026-04-29 16:04 36.60162 -4.30760 35918 ft 502 kts 43°
2026-04-29 16:04 36.64971 -4.24464 35919 ft 501 kts 44°
2026-04-29 16:05 36.69771 -4.18168 35928 ft 500 kts 44°
2026-04-29 16:05 36.74553 -4.11881 35932 ft 499 kts 44°
2026-04-29 16:06 36.79326 -4.05596 35945 ft 498 kts 44°
2026-04-29 16:06 36.84063 -3.99347 35935 ft 498 kts 44°
2026-04-29 16:07 36.88826 -3.93050 35946 ft 497 kts 44°
2026-04-29 16:07 36.93575 -3.86759 35945 ft 497 kts 44°
2026-04-29 16:08 36.97521 -3.81522 35937 ft 497 kts 44°
2026-04-29 16:08 37.03026 -3.74201 35936 ft 496 kts 44°
2026-04-29 16:09 37.06942 -3.68984 35939 ft 496 kts 44°
2026-04-29 16:09 37.11688 -3.62660 35938 ft 496 kts 44°
2026-04-29 16:10 37.16493 -3.56449 35798 ft 497 kts 43°
2026-04-29 16:10 37.21285 -3.50276 35935 ft 491 kts 43°
2026-04-29 16:11 37.26034 -3.44127 35946 ft 489 kts 43°
2026-04-29 16:11 37.30759 -3.37992 35950 ft 488 kts 43°
2026-04-29 16:12 37.35500 -3.31829 35944 ft 494 kts 43°
2026-04-29 16:12 37.40256 -3.25633 35935 ft 497 kts 43°
2026-04-29 16:13 37.45061 -3.19358 35937 ft 499 kts 43°
2026-04-29 16:13 37.49885 -3.13047 35923 ft 498 kts 43°
2026-04-29 16:14 37.54682 -3.06759 35929 ft 497 kts 43°
2026-04-29 16:14 37.59462 -3.00485 35910 ft 495 kts 43°
2026-04-29 16:15 37.64217 -2.94249 35919 ft 492 kts 44°
2026-04-29 16:15 37.68952 -2.88029 35923 ft 489 kts 44°
2026-04-29 16:16 37.73615 -2.81888 35926 ft 486 kts 44°
2026-04-29 16:16 37.78285 -2.75721 35931 ft 484 kts 44°
2026-04-29 16:17 37.82922 -2.69566 35934 ft 482 kts 44°
2026-04-29 16:17 37.87541 -2.63420 35938 ft 481 kts 44°
2026-04-29 16:18 37.92154 -2.57273 35939 ft 481 kts 44°
2026-04-29 16:18 37.96731 -2.51165 35942 ft 480 kts 44°
2026-04-29 16:19 38.01337 -2.45014 35945 ft 481 kts 44°
2026-04-29 16:19 38.05955 -2.38841 35953 ft 482 kts 44°
2026-04-29 16:20 38.10577 -2.32647 35937 ft 483 kts 44°
2026-04-29 16:20 38.15186 -2.26458 35943 ft 484 kts 44°
2026-04-29 16:21 38.19816 -2.20230 35942 ft 485 kts 44°
2026-04-29 16:21 38.24192 -2.13658 35942 ft 487 kts 50°
2026-04-29 16:22 38.28318 -2.06806 35932 ft 488 kts 51°
2026-04-29 16:22 38.32461 -2.00000 35929 ft 488 kts 50°
2026-04-29 16:23 38.36661 -1.93177 35919 ft 488 kts 50°
2026-04-29 16:23 38.40856 -1.86367 35921 ft 488 kts 50°
2026-04-29 16:24 38.45043 -1.79562 35919 ft 487 kts 50°
2026-04-29 16:24 38.49194 -1.72796 35912 ft 486 kts 50°
2026-04-29 16:25 38.53364 -1.65983 35915 ft 486 kts 50°
2026-04-29 16:25 38.57522 -1.59176 35918 ft 485 kts 50°
2026-04-29 16:26 38.61663 -1.52382 35917 ft 484 kts 50°
2026-04-29 16:26 38.65777 -1.45617 35918 ft 483 kts 50°
2026-04-29 16:27 38.69893 -1.38837 35916 ft 483 kts 50°
2026-04-29 16:27 38.74010 -1.32040 35911 ft 482 kts 50°
2026-04-29 16:28 38.78114 -1.25251 35925 ft 481 kts 50°
2026-04-29 16:28 38.82187 -1.18497 35918 ft 481 kts 50°
2026-04-29 16:29 38.86284 -1.11689 35922 ft 481 kts 50°
2026-04-29 16:29 38.90373 -1.04878 35929 ft 481 kts 50°
2026-04-29 16:30 38.94188 -0.98511 35928 ft 481 kts 50°
2026-04-29 16:30 38.98268 -0.91687 35921 ft 481 kts 50°
2026-04-29 16:31 39.02320 -0.84896 35932 ft 481 kts 50°
2026-04-29 16:31 39.06417 -0.78090 35930 ft 480 kts 47°
2026-04-29 16:32 39.11287 -0.72313 35943 ft 475 kts 36°
2026-04-29 16:32 39.16451 -0.66990 35928 ft 475 kts 36°
2026-04-29 16:33 39.24117 -0.58882 35939 ft 475 kts 37°
2026-04-29 16:33 39.29212 -0.53437 35937 ft 474 kts 36°
2026-04-29 16:34 39.34418 -0.48308 35943 ft 473 kts 33°
2026-04-29 16:34 39.39718 -0.43269 35937 ft 472 kts 33°
2026-04-29 16:35 39.44990 -0.38195 35939 ft 471 kts 34°
2026-04-29 16:35 39.50235 -0.33087 35940 ft 470 kts 34°
2026-04-29 16:36 39.55453 -0.27984 35939 ft 469 kts 34°
2026-04-29 16:36 39.60621 -0.22921 35942 ft 468 kts 34°
2026-04-29 16:37 39.65826 -0.17816 35940 ft 468 kts 34°
2026-04-29 16:37 39.70140 -0.13576 35939 ft 466 kts 34°
2026-04-29 16:38 39.76141 -0.07666 35934 ft 460 kts 34°
2026-04-29 16:38 39.81204 -0.02672 35942 ft 458 kts 34°
2026-04-29 16:39 39.86441 0.01955 35945 ft 453 kts 27°
2026-04-29 16:39 39.91945 0.05937 35951 ft 452 kts 25°
2026-04-29 16:40 39.97469 0.09904 35956 ft 453 kts 26°
2026-04-29 16:40 40.02975 0.13946 35964 ft 455 kts 26°
2026-04-29 16:41 40.08498 0.18044 35965 ft 457 kts 27°
2026-04-29 16:41 40.14000 0.22138 35969 ft 459 kts 27°
2026-04-29 16:42 40.19558 0.26278 35963 ft 460 kts 27°
2026-04-29 16:42 40.25133 0.30438 35964 ft 461 kts 27°
2026-04-29 16:43 40.30737 0.34578 35952 ft 461 kts 24°
2026-04-29 16:43 40.36725 0.37369 35964 ft 455 kts 13°
2026-04-29 16:44 40.42823 0.39593 35953 ft 454 kts 13°
2026-04-29 16:44 40.48876 0.41828 35951 ft 454 kts 13°
2026-04-29 16:45 40.54946 0.44128 35947 ft 453 kts 13°
2026-04-29 16:45 40.61005 0.46449 35947 ft 453 kts 14°
2026-04-29 16:46 40.67020 0.48759 35951 ft 452 kts 14°
2026-04-29 16:46 40.73060 0.51081 35943 ft 451 kts 14°
2026-04-29 16:47 40.79085 0.53401 35944 ft 450 kts 14°
2026-04-29 16:47 40.85104 0.55723 35950 ft 450 kts 14°
2026-04-29 16:48 40.91090 0.58036 35947 ft 451 kts 14°
2026-04-29 16:48 40.97105 0.60365 35930 ft 450 kts 14°
2026-04-29 16:49 41.03107 0.62695 35928 ft 450 kts 14°
2026-04-29 16:49 41.09117 0.65031 35940 ft 450 kts 14°
2026-04-29 16:50 41.15127 0.67371 35936 ft 450 kts 14°
2026-04-29 16:50 41.21134 0.69708 35940 ft 450 kts 14°
2026-04-29 16:51 41.27116 0.72040 35935 ft 450 kts 14°
2026-04-29 16:51 41.33136 0.74391 35937 ft 451 kts 14°
2026-04-29 16:52 41.39173 0.76755 35933 ft 451 kts 14°
2026-04-29 16:52 41.45162 0.79104 35936 ft 451 kts 14°
2026-04-29 16:53 41.51198 0.81476 35929 ft 451 kts 14°
2026-04-29 16:53 41.57218 0.83847 35933 ft 451 kts 14°
2026-04-29 16:54 41.63238 0.86222 35936 ft 451 kts 14°
2026-04-29 16:54 41.68222 0.88192 35918 ft 442 kts 14°
2026-04-29 16:55 41.74964 0.90865 35935 ft 430 kts 14°
2026-04-29 16:55 41.79718 0.92751 35601 ft 427 kts 15°
2026-04-29 16:56 41.82543 0.93871 35310 ft 420 kts 14°
2026-04-29 16:56 41.85340 0.94983 34909 ft 417 kts 15°
2026-04-29 16:56 41.88112 0.96086 34546 ft 414 kts 14°
2026-04-29 16:56 41.90867 0.97184 34178 ft 411 kts 15°
2026-04-29 16:57 41.93601 0.98275 33776 ft 409 kts 15°
2026-04-29 16:57 41.96328 0.99363 33351 ft 406 kts 15°
2026-04-29 16:57 41.99038 1.00445 32962 ft 403 kts 15°
2026-04-29 16:57 42.01721 1.01518 32579 ft 400 kts 15°
2026-04-29 16:58 42.04380 1.02582 32214 ft 397 kts 15°
2026-04-29 16:58 42.07022 1.03640 31848 ft 394 kts 15°
2026-04-29 16:58 42.09646 1.04691 31484 ft 392 kts 15°
2026-04-29 16:58 42.12218 1.05715 31143 ft 389 kts 13°
2026-04-29 16:59 42.14871 1.06362 30779 ft 385 kts
2026-04-29 16:59 42.17540 1.06384 30385 ft 383 kts 354°
2026-04-29 16:59 42.20188 1.06092 30050 ft 380 kts 353°
2026-04-29 16:59 42.22816 1.05761 29657 ft 379 kts 353°
2026-04-29 17:00 42.25429 1.05434 29270 ft 376 kts 353°
2026-04-29 17:00 42.28031 1.05123 28894 ft 373 kts 353°
2026-04-29 17:00 42.30603 1.04828 28540 ft 370 kts 354°
2026-04-29 17:00 42.33170 1.04540 28029 ft 371 kts 354°
2026-04-29 17:01 42.35758 1.04254 27441 ft 375 kts 354°
2026-04-29 17:01 42.38361 1.03966 27011 ft 374 kts 354°
2026-04-29 17:01 42.40935 1.03684 26719 ft 369 kts 353°
2026-04-29 17:01 42.43480 1.03404 26406 ft 365 kts 353°
2026-04-29 17:02 42.46014 1.03127 25962 ft 366 kts 353°
2026-04-29 17:02 42.48520 1.02855 25562 ft 365 kts 353°
2026-04-29 17:02 42.51048 1.02582 25216 ft 363 kts 353°
2026-04-29 17:02 42.53563 1.02310 24890 ft 361 kts 353°
2026-04-29 17:03 42.56063 1.02039 24530 ft 359 kts 353°
2026-04-29 17:03 42.58547 1.01769 24181 ft 357 kts 353°
2026-04-29 17:03 42.61024 1.01499 23833 ft 356 kts 353°
2026-04-29 17:03 42.63494 1.01230 23478 ft 355 kts 353°
2026-04-29 17:04 42.65947 1.00963 23120 ft 352 kts 353°
2026-04-29 17:04 42.68385 1.00697 22733 ft 350 kts 353°
2026-04-29 17:04 42.70778 1.00435 22360 ft 349 kts 353°
2026-04-29 17:04 42.73192 1.00172 22010 ft 347 kts 353°
2026-04-29 17:05 42.75591 0.99910 21655 ft 345 kts 353°
2026-04-29 17:05 42.77975 0.99653 21285 ft 343 kts 354°
2026-04-29 17:05 42.80355 0.99450 20925 ft 342 kts 355°
2026-04-29 17:05 42.82724 0.99278 20606 ft 338 kts 355°
2026-04-29 17:06 42.85069 0.99114 20191 ft 336 kts 355°
2026-04-29 17:06 42.87408 0.98946 19756 ft 335 kts 355°
2026-04-29 17:06 42.89728 0.98776 19331 ft 333 kts 355°
2026-04-29 17:06 42.92039 0.98603 18924 ft 331 kts 355°
2026-04-29 17:07 42.94329 0.98430 18517 ft 329 kts 355°
2026-04-29 17:07 42.96614 0.98257 18114 ft 327 kts 355°
2026-04-29 17:07 42.98850 0.98089 17684 ft 325 kts 355°
2026-04-29 17:07 43.01103 0.98025 17218 ft 324 kts
2026-04-29 17:08 43.03345 0.98243 16784 ft 322 kts
2026-04-29 17:08 43.05564 0.98556 16393 ft 319 kts
2026-04-29 17:08 43.07756 0.98881 16065 ft 314 kts
2026-04-29 17:08 43.09910 0.99194 15731 ft 309 kts
2026-04-29 17:09 43.12034 0.99493 15437 ft 304 kts
2026-04-29 17:09 43.14139 0.99781 15147 ft 302 kts
2026-04-29 17:09 43.16227 1.00059 14848 ft 301 kts
2026-04-29 17:09 43.18306 1.00330 14523 ft 299 kts
2026-04-29 17:10 43.20361 1.00598 14223 ft 295 kts
2026-04-29 17:10 43.22394 1.00863 13917 ft 291 kts
2026-04-29 17:10 43.24397 1.01122 13630 ft 287 kts
2026-04-29 17:10 43.26351 1.01375 13323 ft 286 kts
2026-04-29 17:11 43.28347 1.01632 13032 ft 289 kts
2026-04-29 17:11 43.30367 1.01892 12740 ft 293 kts
2026-04-29 17:11 43.32421 1.02156 12432 ft 298 kts
2026-04-29 17:11 43.34497 1.02424 12127 ft 299 kts
2026-04-29 17:12 43.36292 1.02655 11859 ft 298 kts
2026-04-29 17:12 43.38328 1.02919 11558 ft 297 kts
2026-04-29 17:12 43.40380 1.03185 11259 ft 296 kts
2026-04-29 17:12 43.41764 1.03364 11059 ft 295 kts
2026-04-29 17:13 43.44470 1.03714 10665 ft 294 kts
2026-04-29 17:13 43.46508 1.03978 10362 ft 293 kts
2026-04-29 17:13 43.48535 1.04241 10088 ft 292 kts
2026-04-29 17:13 43.50535 1.04501 9962 ft 284 kts
2026-04-29 17:14 43.52505 1.04756 9655 ft 284 kts
2026-04-29 17:14 43.54472 1.05012 9361 ft 284 kts
2026-04-29 17:14 43.56437 1.05267 9054 ft 283 kts
2026-04-29 17:14 43.58392 1.05521 8774 ft 282 kts
2026-04-29 17:15 43.60344 1.05775 8482 ft 281 kts
2026-04-29 17:15 43.62287 1.06028 8190 ft 280 kts
2026-04-29 17:15 43.64220 1.06279 7904 ft 279 kts
2026-04-29 17:15 43.66134 1.06524 7537 ft 281 kts
2026-04-29 17:16 43.68090 1.06771 7185 ft 283 kts
2026-04-29 17:16 43.70066 1.07020 6814 ft 286 kts
2026-04-29 17:16 43.72062 1.07272 6427 ft 289 kts
2026-04-29 17:16 43.74042 1.07527 6038 ft 291 kts
2026-04-29 17:17 43.75921 1.08423 5952 ft 283 kts 32°
2026-04-29 17:17 43.77309 1.10265 5841 ft 272 kts 54°
2026-04-29 17:17 43.78107 1.12638 5322 ft 274 kts 72°
2026-04-29 17:17 43.78664 1.15153 4854 ft 273 kts 73°
2026-04-29 17:18 43.79122 1.17700 4339 ft 273 kts 86°
2026-04-29 17:18 43.78734 1.20204 3836 ft 267 kts 120°
2026-04-29 17:18 43.77429 1.21894 3473 ft 255 kts 153°
2026-04-29 17:18 43.75875 1.22953 3144 ft 241 kts 149°
2026-04-29 17:19 43.74501 1.24108 2842 ft 222 kts 145°
2026-04-29 17:19 43.73304 1.25302 2565 ft 208 kts 142°
2026-04-29 17:19 43.72187 1.26462 2328 ft 195 kts 142°
2026-04-29 17:19 43.71118 1.27583 2056 ft 186 kts 142°
2026-04-29 17:20 43.70129 1.28623 1811 ft 177 kts 142°
2026-04-29 17:20 43.69171 1.29622 1598 ft 168 kts 141°
2026-04-29 17:20 43.68262 1.30573 1385 ft 161 kts 142°
2026-04-29 17:20 43.67395 1.31472 1311 ft 156 kts 141°
2026-04-29 17:21 43.66514 1.32403 1081 ft 161 kts 141°
2026-04-29 17:21 43.65651 1.33299 825 ft 148 kts 140°
2026-04-29 17:21 43.64855 1.34132 637 ft 144 kts 140°
2026-04-29 17:21 43.64045 1.34976 497 ft 143 kts 141°
2026-04-29 17:22 43.63337 1.35712 493 ft 110 kts 143°
2026-04-29 17:22 43.62831 1.36237 488 ft 75 kts 143°
2026-04-29 17:22 43.62512 1.36569 486 ft 39 kts 143°
2026-04-29 17:22 43.62449 1.36773 490 ft 23 kts 79°
2026-04-29 17:23 43.62461 1.36900 489 ft 0 kts 83°
2026-04-29 17:24 43.62462 1.36903 489 ft 3 kts 82°
2026-04-29 17:24 43.62473 1.37018 486 ft 20 kts 83°
2026-04-29 17:24 43.62495 1.37212 491 ft 20 kts 70°
2026-04-29 17:25 43.62577 1.37367 489 ft 20 kts 52°
2026-04-29 17:25 43.62655 1.37519 486 ft 19 kts 60°
2026-04-29 17:25 43.62727 1.37630 489 ft 9 kts
2026-04-29 17:25 43.62779 1.37628 493 ft 9 kts 48°
2026-04-29 17:26 43.62799 1.37665 493 ft 0 kts 53°